Find Starlink 31513

NORAD ID: 59529 Int'l Des: 2024-073 Owner: SPXS Country: US Constellation: starlink operational
LEOCIRCULAR

Current View

Loading 3D Globe...

About Starlink 31513

Starlink 31513 (NORAD 59529) is a starlink constellation satellite (v2 mini) launched Apr 17, 2024 by SPXS of US. It operates in LEO, CIRCULAR orbit with a mass of 730.00 kg.

About Starlink 31513

Description loading...

Upcoming Passes

Passes for default location (London). Set your location on the main map for personalized predictions.

Altitude History

Loading altitude history...

Two-Line Element Set

1 59529U 24073U 26170.50278552 .00010977 00000-0 40851-3 0 9991
2 59529 43.0018 99.7894 0001079 254.3951 105.6781 15.27523635121786
Epoch: Jun 19, 2026 • Age: 20 hours

Current Status

Altitude 482.5 km
Velocity 7.63 km/s
Sub-Earth Point 7.62°N, 66.86°E
Launch Date Apr 17, 2024
Age 2.1 years
Type internet

Technical Details

Classification Payload
Mass 730.00 kg
Dry Mass 700.00 kg
Total Mass 730.00 kg
Length 0.30 m
Diameter 4.10 m
Span 29.00 m
Shape Box + pan
Manufacturer SPXS
Bus Type Starlink V2M
Phase Status In Orbit
Owner/State SPXS/US

Most Searched